This is the latest recevied weather packets stored in our database for station/object N8WJW. If no packets are shown the sender has not sent any weather packets the latest 10 day(s).
| Time | Temp. | Humidity | Pressure | Rain* | Wind** | Luminosity | Snow |
|---|---|---|---|---|---|---|---|
| 1777671961 | 6.67° C | 86% | 1014.6 hPa | 0 mm | - | 231 W/m² | - |
| 1777671657 | 6.67° C | 87% | 1014.6 hPa | 0 mm | - | 200 W/m² | - |
| 1777671354 | 5.56° C | 86% | 1014.7 hPa | 0 mm | - | 216 W/m² | - |
| 1777671050 | 6.11° C | 89% | 1014.7 hPa | 0 mm | - | 221 W/m² | - |
| 1777670746 | 5.56° C | 90% | 1014.6 hPa | 0 mm | - | 177 W/m² | - |
| 1777670443 | 5.56° C | 91% | 1014.4 hPa | 0 mm | - | 197 W/m² | - |
| 1777670140 | 5.56° C | 91% | 1014.3 hPa | 0 mm | - | 185 W/m² | - |
| 1777669838 | 5° C | 92% | 1014.2 hPa | 0 mm | - | 180 W/m² | - |
| 1777669534 | 5° C | 93% | 1014.1 hPa | 0 mm | - | 176 W/m² | - |
| 1777669231 | 5° C | 94% | 1014 hPa | 0 mm | - | 145 W/m² | - |
| 1777668928 | 5° C | 94% | 1014.1 hPa | 0 mm | - | 171 W/m² | - |
| 1777668626 | 5° C | 95% | 1014.4 hPa | 0 mm | - | 217 W/m² | - |
| 1777668321 | 5° C | 96% | 1014.3 hPa | 0 mm | - | 75 W/m² | - |
| 1777668017 | 5° C | 96% | 1014.1 hPa | 0 mm | - | 122 W/m² | - |
| 1777667714 | 5° C | 96% | 1014.4 hPa | 0 mm | - | 165 W/m² | - |
| 1777667412 | 5° C | 96% | 1014.4 hPa | 0 mm | - | 214 W/m² | - |
| 1777667109 | 4.44° C | 97% | 1014.3 hPa | 0 mm | - | 208 W/m² | - |
| 1777666805 | 4.44° C | 97% | 1014.4 hPa | 0 mm | - | 277 W/m² | - |
| 1777666503 | 5° C | 97% | 1014.1 hPa | 0 mm | - | 216 W/m² | - |
| 1777666199 | 4.44° C | 97% | 1014 hPa | 0 mm | - | 147 W/m² | - |
| 1777665896 | 5° C | 97% | 1014 hPa | 0 mm | - | 162 W/m² | - |
| 1777665594 | 4.44° C | 97% | 1014.3 hPa | 0 mm | - | 179 W/m² | - |
| 1777665290 | 4.44° C | 97% | 1014.1 hPa | 0 mm | - | 162 W/m² | - |
| 1777664985 | 4.44° C | 97% | 1014.1 hPa | 0 mm | - | 168 W/m² | - |
| 1777664681 | 4.44° C | 98% | 1014.1 hPa | 0 mm | - | 213 W/m² | - |
* Rain latest hour (hover to see other rain measurements)
** Current wind speed in m/s (hover to see current wind gust speed)